URO15Q EGHH-EGFF

Flight info

Callsign URO15Q
Flight time 0h 15m
Altitude 12000
Route BEVUP DCT ADVED DCT LOLPI
Aircraft A346/H-SDE2E3FGHIJ3J4J5M1RWXY/LB1D1

Departure

Time 2026-05-07 16:43
Airport Bournemouth Airport (EGHH)

Arrival

Time 2026-05-07 16:59
Airport Cardiff International Airport (EGFF)
Time Latitude Longitude Altitude Speed Heading
2026-05-07 16:16 50.78607 -1.84236 54 ft 0 kts 255°
2026-05-07 16:24 50.78610 -1.84216 47 ft 4 kts 257°
2026-05-07 16:24 50.78615 -1.84180 47 ft 4 kts 251°
2026-05-07 16:25 50.78626 -1.84152 47 ft 4 kts 219°
2026-05-07 16:25 50.78642 -1.84141 47 ft 4 kts 181°
2026-05-07 16:25 50.78666 -1.84146 47 ft 4 kts 165°
2026-05-07 16:25 50.78687 -1.84155 48 ft 1 kts 166°
2026-05-07 16:26 50.78691 -1.84157 47 ft 0 kts 166°
2026-05-07 16:39 50.78688 -1.84156 49 ft 2 kts 166°
2026-05-07 16:39 50.78661 -1.84145 54 ft 6 kts 166°
2026-05-07 16:40 50.78591 -1.84117 51 ft 14 kts 166°
2026-05-07 16:40 50.78480 -1.84070 52 ft 19 kts 165°
2026-05-07 16:40 50.78339 -1.84013 54 ft 23 kts 165°
2026-05-07 16:40 50.78173 -1.83944 51 ft 26 kts 165°
2026-05-07 16:41 50.78087 -1.83768 51 ft 24 kts 76°
2026-05-07 16:41 50.78133 -1.83496 50 ft 27 kts 75°
2026-05-07 16:41 50.78184 -1.83184 53 ft 30 kts 75°
2026-05-07 16:41 50.78223 -1.82949 51 ft 19 kts 75°
2026-05-07 16:42 50.78213 -1.82759 52 ft 12 kts 84°
2026-05-07 16:42 50.78251 -1.82771 49 ft 8 kts 276°
2026-05-07 16:42 50.78244 -1.82821 46 ft 0 kts 255°
2026-05-07 16:42 50.78244 -1.82822 46 ft 0 kts 255°
2026-05-07 16:43 50.78213 -1.83009 52 ft 58 kts 255°
2026-05-07 16:43 50.78033 -1.84086 52 ft 139 kts 255°
2026-05-07 16:43 50.77769 -1.85792 556 ft 161 kts 252°
2026-05-07 16:43 50.77484 -1.87479 1587 ft 156 kts 250°
2026-05-07 16:44 50.77171 -1.89185 2409 ft 172 kts 251°
2026-05-07 16:44 50.77189 -1.91170 3567 ft 197 kts 277°
2026-05-07 16:44 50.77502 -1.93468 4466 ft 231 kts 280°
2026-05-07 16:44 50.77847 -1.96164 5266 ft 261 kts 280°
2026-05-07 16:45 50.78150 -1.98902 6033 ft 261 kts 278°
2026-05-07 16:45 50.78422 -2.01829 6812 ft 268 kts 277°
2026-05-07 16:45 50.78662 -2.04768 7575 ft 270 kts 276°
2026-05-07 16:45 50.78881 -2.07740 8351 ft 273 kts 275°
2026-05-07 16:46 50.79095 -2.10737 9144 ft 275 kts 274°
2026-05-07 16:46 50.79305 -2.13756 9960 ft 277 kts 274°
2026-05-07 16:46 50.79518 -2.16809 10702 ft 280 kts 276°
2026-05-07 16:46 50.80174 -2.19737 11418 ft 291 kts 301°
2026-05-07 16:47 50.81506 -2.22224 11909 ft 297 kts 311°
2026-05-07 16:47 50.82966 -2.24563 12040 ft 299 kts 312°
2026-05-07 16:47 50.84437 -2.26916 12025 ft 299 kts 311°
2026-05-07 16:47 50.85880 -2.29289 12031 ft 299 kts 311°
2026-05-07 16:48 50.87323 -2.31723 12032 ft 307 kts 310°
2026-05-07 16:48 50.88837 -2.34329 12040 ft 336 kts 310°
2026-05-07 16:48 50.90465 -2.37160 12037 ft 354 kts 310°
2026-05-07 16:48 50.92126 -2.40060 12029 ft 357 kts 310°
2026-05-07 16:49 50.93795 -2.42986 12025 ft 357 kts 310°
2026-05-07 16:49 50.95462 -2.45913 12025 ft 358 kts 310°
2026-05-07 16:49 50.97129 -2.48850 12024 ft 357 kts 310°
2026-05-07 16:49 50.98817 -2.51833 12024 ft 357 kts 310°
2026-05-07 16:50 51.00515 -2.54835 12026 ft 357 kts 310°
2026-05-07 16:50 51.02176 -2.57777 12027 ft 357 kts 310°
2026-05-07 16:50 51.03837 -2.60719 12025 ft 357 kts 310°
2026-05-07 16:50 51.05499 -2.63668 12025 ft 357 kts 310°
2026-05-07 16:51 51.07131 -2.66569 11702 ft 357 kts 310°
2026-05-07 16:51 51.08810 -2.69555 11167 ft 353 kts 309°
2026-05-07 16:51 51.10421 -2.72423 10494 ft 352 kts 309°
2026-05-07 16:51 51.12073 -2.75369 9702 ft 350 kts 309°
2026-05-07 16:52 51.13667 -2.78215 8881 ft 348 kts 309°
2026-05-07 16:52 51.15242 -2.81040 8011 ft 335 kts 309°
2026-05-07 16:52 51.16761 -2.83769 7243 ft 322 kts 309°
2026-05-07 16:52 51.18224 -2.86393 6493 ft 313 kts 309°
2026-05-07 16:53 51.19658 -2.88959 5696 ft 306 kts 309°
2026-05-07 16:53 51.21062 -2.91477 4936 ft 301 kts 309°
2026-05-07 16:53 51.22441 -2.93965 4137 ft 297 kts 309°
2026-05-07 16:53 51.23801 -2.96415 3358 ft 293 kts 310°
2026-05-07 16:54 51.25155 -2.98850 2584 ft 293 kts 309°
2026-05-07 16:54 51.26500 -3.01268 2252 ft 290 kts 309°
2026-05-07 16:54 51.27826 -3.03666 1983 ft 283 kts 309°
2026-05-07 16:54 51.29094 -3.05960 1983 ft 268 kts 309°
2026-05-07 16:55 51.30319 -3.08175 1988 ft 265 kts 309°
2026-05-07 16:55 51.31535 -3.10374 1987 ft 264 kts 309°
2026-05-07 16:55 51.32751 -3.12572 1987 ft 263 kts 309°
2026-05-07 16:55 51.33968 -3.14760 1994 ft 260 kts 310°
2026-05-07 16:56 51.34960 -3.17037 1944 ft 240 kts 287°
2026-05-07 16:56 51.35368 -3.19472 1975 ft 213 kts 281°
2026-05-07 16:56 51.36285 -3.23598 1547 ft 184 kts 291°
2026-05-07 16:57 51.36835 -3.25376 1302 ft 172 kts 294°
2026-05-07 16:57 51.37366 -3.27022 1071 ft 160 kts 293°
2026-05-07 16:57 51.37851 -3.28560 851 ft 150 kts 292°
2026-05-07 16:57 51.38306 -3.30041 667 ft 145 kts 294°
2026-05-07 16:58 51.38765 -3.31487 487 ft 146 kts 296°
2026-05-07 16:58 51.39217 -3.32919 281 ft 142 kts 296°
2026-05-07 16:58 51.39634 -3.34251 231 ft 108 kts 297°
2026-05-07 16:58 51.39884 -3.35039 230 ft 52 kts 296°
2026-05-07 16:59 51.40015 -3.35454 232 ft 28 kts 298°
2026-05-07 16:59 51.40118 -3.35482 234 ft 16 kts 33°
2026-05-07 16:59 51.40148 -3.35294 235 ft 20 kts 106°
2026-05-07 16:59 51.40106 -3.35155 237 ft 14 kts 116°
2026-05-07 17:00 51.40062 -3.35013 235 ft 9 kts 117°
2026-05-07 17:00 51.40048 -3.34969 232 ft 3 kts 117°
2026-05-07 17:00 51.40040 -3.34946 233 ft 0 kts 117°
2026-05-07 17:01 51.40039 -3.34940 233 ft 2 kts 117°
2026-05-07 17:01 51.40025 -3.34896 237 ft 6 kts 117°
2026-05-07 17:01 51.39986 -3.34775 239 ft 16 kts 116°
2026-05-07 17:01 51.39927 -3.34587 237 ft 21 kts 117°
2026-05-07 17:02 51.39850 -3.34344 236 ft 26 kts 117°
2026-05-07 17:02 51.39763 -3.34068 233 ft 27 kts 116°
2026-05-07 17:02 51.39692 -3.33840 234 ft 23 kts 117°
2026-05-07 17:02 51.39650 -3.33706 233 ft 7 kts 116°
2026-05-07 17:03 51.39630 -3.33611 233 ft 10 kts 83°
2026-05-07 17:03 51.39689 -3.33557 234 ft 7 kts 324°
2026-05-07 17:03 51.39691 -3.33583 233 ft 0 kts 248°
2026-05-07 17:03 51.39691 -3.33584 233 ft 0 kts 244°
2026-05-07 17:04 51.39695 -3.33570 237 ft 1 kts 244°
2026-05-07 17:04 51.39694 -3.33572 237 ft 0 kts 244°
2026-05-07 17:04 51.39706 -3.33602 238 ft 0 kts 207°